This is the latest recevied weather packets stored in our database for station/object SV9TNF-52. If no packets are shown the sender has not sent any weather packets the latest 10 day(s).
| Time | Temp. | Humidity | Pressure | Rain* | Wind** | Luminosity | Snow |
|---|---|---|---|---|---|---|---|
| 1788579152 | 26.67° C | 64% | 1020 hPa | 0 mm | 8.49 m/s, 45° | - | - |
| 1788578852 | 26.67° C | 64% | 1020 hPa | 0 mm | 9.83 m/s, 38° | - | - |
| 1788578552 | 26.67° C | 64% | 1020 hPa | 0 mm | 8.49 m/s, 24° | - | - |
| 1788578252 | 26.67° C | 62% | 1020 hPa | 0 mm | 7.15 m/s, 356° | - | - |
| 1788577952 | 26.67° C | 63% | 1020 hPa | 0 mm | 8.05 m/s, 2° | - | - |
| 1788577652 | 26.67° C | 63% | 1020 hPa | 0 mm | 6.71 m/s, 349° | - | - |
| 1788577351 | 26.67° C | 64% | 1020 hPa | 0 mm | 6.26 m/s, 290° | - | - |
| 1788577051 | 26.67° C | 61% | 1020 hPa | 0 mm | 8.94 m/s, 274° | - | - |
| 1788576751 | 26.67° C | 62% | 1020 hPa | 0 mm | 7.15 m/s, 335° | - | - |
| 1788576451 | 26.67° C | 61% | 1020 hPa | 0 mm | 7.15 m/s, 10° | - | - |
| 1788576151 | 26.67° C | 61% | 1020 hPa | 0 mm | 16.09 m/s, 10° | - | - |
| 1788575851 | 26.67° C | 63% | 1020 hPa | 0 mm | 9.83 m/s, 324° | - | - |
| 1788575551 | 26.67° C | 63% | 1020 hPa | 0 mm | 8.94 m/s, 307° | - | - |
| 1788575251 | 26.67° C | 61% | 1020 hPa | 0 mm | 8.94 m/s, 11° | - | - |
| 1788574951 | 26.67° C | 61% | 1020 hPa | 0 mm | 13.86 m/s, 7° | - | - |
| 1788574650 | 26.67° C | 62% | 1020 hPa | 0 mm | 12.07 m/s, 66° | - | - |
| 1788574350 | 26.67° C | 60% | 1020 hPa | 0 mm | 11.18 m/s, 35° | - | - |
| 1788574051 | 26.67° C | 62% | 1020 hPa | 0 mm | 13.86 m/s, 18° | - | - |
| 1788573750 | 26.67° C | 62% | 1020 hPa | 0 mm | 13.41 m/s, 354° | - | - |
| 1788573451 | 26.67° C | 63% | 1020 hPa | 0 mm | 12.07 m/s, 35° | - | - |
| 1788573150 | 26.67° C | 64% | 1020 hPa | 0 mm | 8.94 m/s, 0° | - | - |
| 1788572850 | 26.67° C | 65% | 1020 hPa | 0 mm | 10.73 m/s, 31° | - | - |
| 1788572550 | 26.11° C | 67% | 1020 hPa | 0 mm | 7.15 m/s, 264° | - | - |
| 1788572250 | 24.44° C | 71% | 1020 hPa | 0 mm | 10.28 m/s, 3° | - | - |
| 1788571950 | 23.33° C | 70% | 1020 hPa | 0 mm | 0 m/s | - | - |
* Rain latest hour (hover to see other rain measurements)
** Current wind speed in m/s (hover to see current wind gust speed)